owner,sensor,date,latitude,longitude,vertical_datum,mass_concentration_of_oxygen_in_sea_water,qcFlag 
NERRS,ioos:station:NOAA.NERRS:apaebwq:1,2017-12-01T00:45:00Z,29.7858,-84.8752,1.96,10.5,1111122 
NERRS,ioos:station:NOAA.NERRS:apaebwq:1,2017-12-01T01:45:00Z,29.7858,-84.8752,2.03,11.1,1111122 
NERRS,ioos:station:NOAA.NERRS:apaebwq:1,2017-12-01T02:45:00Z,29.7858,-84.8752,2.14,10.9,1111122 
NERRS,ioos:station:NOAA.NERRS:apaebwq:1,2017-12-01T03:45:00Z,29.7858,-84.8752,2.24,10.8,1111122 
NERRS,ioos:station:NOAA.NERRS:apaebwq:1,2017-12-01T04:45:00Z,29.7858,-84.8752,2.29,10.4,1111122 
NERRS,ioos:station:NOAA.NERRS:apaebwq:1,2017-12-01T05:45:00Z,29.7858,-84.8752,2.29,10.3,1111122 
NERRS,ioos:station:NOAA.NERRS:apaebwq:1,2017-12-01T06:45:00Z,29.7858,-84.8752,2.22,10.5,1111122 
NERRS,ioos:station:NOAA.NERRS:apaebwq:1,2017-12-01T07:45:00Z,29.7858,-84.8752,2.11,10.5,1111122 
NERRS,ioos:station:NOAA.NERRS:apaebwq:1,2017-12-01T08:45:00Z,29.7858,-84.8752,2.01,10.0,1111122 
NERRS,ioos:station:NOAA.NERRS:apaebwq:1,2017-12-01T09:45:00Z,29.7858,-84.8752,1.89,9.7,1111122 
NERRS,ioos:station:NOAA.NERRS:apaebwq:1,2017-12-01T10:45:00Z,29.7858,-84.8752,1.79,9.2,1111122 
NERRS,ioos:station:NOAA.NERRS:apaebwq:1,2017-12-01T13:45:00Z,29.7858,-84.8752,1.63,8.2,1111122 
NERRS,ioos:station:NOAA.NERRS:apaebwq:1,2017-12-01T14:45:00Z,29.7858,-84.8752,1.71,9.6,1111122 
NERRS,ioos:station:NOAA.NERRS:apaebwq:1,2017-12-01T15:45:00Z,29.7858,-84.8752,1.88,10.6,1111122 
NERRS,ioos:station:NOAA.NERRS:apaebwq:1,2017-12-01T16:45:00Z,29.7858,-84.8752,2.04,10.6,1111122 
NERRS,ioos:station:NOAA.NERRS:apaebwq:1,2017-12-01T17:45:00Z,29.7858,-84.8752,2.15,9.9,1111122 
NERRS,ioos:station:NOAA.NERRS:apaebwq:1,2017-12-01T18:45:00Z,29.7858,-84.8752,2.24,9.3,1111122 
NERRS,ioos:station:NOAA.NERRS:apaebwq:1,2017-12-01T19:45:00Z,29.7858,-84.8752,2.27,11.4,1111122 
NERRS,ioos:station:NOAA.NERRS:apaebwq:1,2017-12-01T20:45:00Z,29.7858,-84.8752,2.27,10.9,1111122 
NERRS,ioos:station:NOAA.NERRS:apaebwq:1,2017-12-01T21:45:00Z,29.7858,-84.8752,2.22,11.3,1111122 
NERRS,ioos:station:NOAA.NERRS:apaebwq:1,2017-12-01T22:45:00Z,29.7858,-84.8752,2.1,10.5,1111122 
NERRS,ioos:station:NOAA.NERRS:apaebwq:1,2017-12-01T23:45:00Z,29.7858,-84.8752,2.02,9.3,1111122 
NERRS,ioos:station:NOAA.NERRS:apaebwq:1,2017-12-02T00:45:00Z,29.7858,-84.8752,2.03,9.1,1111122 
NERRS,ioos:station:NOAA.NERRS:apaebwq:1,2017-12-02T01:45:00Z,29.7858,-84.8752,2.08,9.4,1111122 
NERRS,ioos:station:NOAA.NERRS:apaebwq:1,2017-12-02T02:45:00Z,29.7858,-84.8752,2.15,8.9,1111122 
NERRS,ioos:station:NOAA.NERRS:apaebwq:1,2017-12-02T03:45:00Z,29.7858,-84.8752,2.24,9.3,1111122 
NERRS,ioos:station:NOAA.NERRS:apaebwq:1,2017-12-02T04:45:00Z,29.7858,-84.8752,2.33,9.8,1111122 
NERRS,ioos:station:NOAA.NERRS:apaebwq:1,2017-12-02T05:45:00Z,29.7858,-84.8752,2.39,9.3,1111122 
NERRS,ioos:station:NOAA.NERRS:apaebwq:1,2017-12-02T06:45:00Z,29.7858,-84.8752,2.37,9.2,1111122 
NERRS,ioos:station:NOAA.NERRS:apaebwq:1,2017-12-02T07:45:00Z,29.7858,-84.8752,2.28,9.3,1111122 
NERRS,ioos:station:NOAA.NERRS:apaebwq:1,2017-12-02T08:45:00Z,29.7858,-84.8752,2.15,9.1,1111122 
NERRS,ioos:station:NOAA.NERRS:apaebwq:1,2017-12-02T09:45:00Z,29.7858,-84.8752,2.03,8.5,1111122 
NERRS,ioos:station:NOAA.NERRS:apaebwq:1,2017-12-02T10:45:00Z,29.7858,-84.8752,1.91,8.1,1111122 
NERRS,ioos:station:NOAA.NERRS:apaebwq:1,2017-12-02T11:45:00Z,29.7858,-84.8752,1.8,8.6,1111122 
NERRS,ioos:station:NOAA.NERRS:apaebwq:1,2017-12-02T12:45:00Z,29.7858,-84.8752,1.71,8.3,1111122 
NERRS,ioos:station:NOAA.NERRS:apaebwq:1,2017-12-02T13:45:00Z,29.7858,-84.8752,1.64,8.3,1111122 
NERRS,ioos:station:NOAA.NERRS:apaebwq:1,2017-12-02T14:45:00Z,29.7858,-84.8752,1.62,8.1,1111122 
NERRS,ioos:station:NOAA.NERRS:apaebwq:1,2017-12-02T15:45:00Z,29.7858,-84.8752,1.69,8.5,1111122 
NERRS,ioos:station:NOAA.NERRS:apaebwq:1,2017-12-02T16:45:00Z,29.7858,-84.8752,1.86,9.5,1111122 
NERRS,ioos:station:NOAA.NERRS:apaebwq:1,2017-12-02T17:45:00Z,29.7858,-84.8752,2.03,9.6,1111122 
NERRS,ioos:station:NOAA.NERRS:apaebwq:1,2017-12-02T18:45:00Z,29.7858,-84.8752,2.16,9.8,1111122 
NERRS,ioos:station:NOAA.NERRS:apaebwq:1,2017-12-02T19:45:00Z,29.7858,-84.8752,2.27,9.3,1111122 
NERRS,ioos:station:NOAA.NERRS:apaebwq:1,2017-12-02T20:45:00Z,29.7858,-84.8752,2.33,9.3,1111122 
NERRS,ioos:station:NOAA.NERRS:apaebwq:1,2017-12-02T21:45:00Z,29.7858,-84.8752,2.33,9.4,1111122 
NERRS,ioos:station:NOAA.NERRS:apaebwq:1,2017-12-02T22:45:00Z,29.7858,-84.8752,2.26,9.6,1111122 
NERRS,ioos:station:NOAA.NERRS:apaebwq:1,2017-12-02T23:45:00Z,29.7858,-84.8752,2.16,9.5,1111122 
NERRS,ioos:station:NOAA.NERRS:apaebwq:1,2017-12-03T00:45:00Z,29.7858,-84.8752,2.1,8.8,1111122 
NERRS,ioos:station:NOAA.NERRS:apaebwq:1,2017-12-03T01:45:00Z,29.7858,-84.8752,2.11,8.7,1111122 
NERRS,ioos:station:NOAA.NERRS:apaebwq:1,2017-12-03T02:45:00Z,29.7858,-84.8752,2.16,8.3,1111122 
NERRS,ioos:station:NOAA.NERRS:apaebwq:1,2017-12-03T03:45:00Z,29.7858,-84.8752,2.22,7.3,1111122 
NERRS,ioos:station:NOAA.NERRS:apaebwq:1,2017-12-03T04:45:00Z,29.7858,-84.8752,2.31,7.8,1111122 
NERRS,ioos:station:NOAA.NERRS:apaebwq:1,2017-12-03T05:45:00Z,29.7858,-84.8752,2.4,8.5,1111122 
NERRS,ioos:station:NOAA.NERRS:apaebwq:1,2017-12-03T06:45:00Z,29.7858,-84.8752,2.43,8.3,1111122 
NERRS,ioos:station:NOAA.NERRS:apaebwq:1,2017-12-03T07:45:00Z,29.7858,-84.8752,2.37,7.6,1111122 
NERRS,ioos:station:NOAA.NERRS:apaebwq:1,2017-12-03T08:45:00Z,29.7858,-84.8752,2.25,8.5,1111122 
NERRS,ioos:station:NOAA.NERRS:apaebwq:1,2017-12-03T09:45:00Z,29.7858,-84.8752,2.12,8.2,1111122 
NERRS,ioos:station:NOAA.NERRS:apaebwq:1,2017-12-03T10:45:00Z,29.7858,-84.8752,1.98,8.2,1111122 
NERRS,ioos:station:NOAA.NERRS:apaebwq:1,2017-12-03T11:45:00Z,29.7858,-84.8752,1.86,8.3,1111122 
NERRS,ioos:station:NOAA.NERRS:apaebwq:1,2017-12-03T12:45:00Z,29.7858,-84.8752,1.77,8.3,1111122 
NERRS,ioos:station:NOAA.NERRS:apaebwq:1,2017-12-03T13:45:00Z,29.7858,-84.8752,1.68,8.2,1111122 
NERRS,ioos:station:NOAA.NERRS:apaebwq:1,2017-12-03T14:45:00Z,29.7858,-84.8752,1.6,8.3,1111122 
NERRS,ioos:station:NOAA.NERRS:apaebwq:1,2017-12-03T15:45:00Z,29.7858,-84.8752,1.58,8.0,1111122 
NERRS,ioos:station:NOAA.NERRS:apaebwq:1,2017-12-03T16:45:00Z,29.7858,-84.8752,1.66,8.4,1111122 
NERRS,ioos:station:NOAA.NERRS:apaebwq:1,2017-12-03T17:45:00Z,29.7858,-84.8752,1.83,8.7,1111122 
NERRS,ioos:station:NOAA.NERRS:apaebwq:1,2017-12-03T18:45:00Z,29.7858,-84.8752,2.03,8.9,1111122 
NERRS,ioos:station:NOAA.NERRS:apaebwq:1,2017-12-03T19:45:00Z,29.7858,-84.8752,2.19,8.5,1111122 
NERRS,ioos:station:NOAA.NERRS:apaebwq:1,2017-12-03T20:45:00Z,29.7858,-84.8752,2.29,8.4,1111122 
NERRS,ioos:station:NOAA.NERRS:apaebwq:1,2017-12-03T21:45:00Z,29.7858,-84.8752,2.35,8.4,1111122 
NERRS,ioos:station:NOAA.NERRS:apaebwq:1,2017-12-03T22:45:00Z,29.7858,-84.8752,2.35,7.6,1111122 
NERRS,ioos:station:NOAA.NERRS:apaebwq:1,2017-12-03T23:45:00Z,29.7858,-84.8752,2.29,8.9,1111122 
NERRS,ioos:station:NOAA.NERRS:apaebwq:1,2017-12-04T00:45:00Z,29.7858,-84.8752,2.19,9.0,1111122 
NERRS,ioos:station:NOAA.NERRS:apaebwq:1,2017-12-04T01:45:00Z,29.7858,-84.8752,2.12,8.8,1111122 
NERRS,ioos:station:NOAA.NERRS:apaebwq:1,2017-12-04T02:45:00Z,29.7858,-84.8752,2.13,8.0,1111122 
NERRS,ioos:station:NOAA.NERRS:apaebwq:1,2017-12-04T03:45:00Z,29.7858,-84.8752,2.15,6.2,1111122 
NERRS,ioos:station:NOAA.NERRS:apaebwq:1,2017-12-04T04:45:00Z,29.7858,-84.8752,2.23,7.8,1111122 
NERRS,ioos:station:NOAA.NERRS:apaebwq:1,2017-12-04T05:45:00Z,29.7858,-84.8752,2.36,8.0,1111122 
NERRS,ioos:station:NOAA.NERRS:apaebwq:1,2017-12-04T06:45:00Z,29.7858,-84.8752,2.39,7.3,1111122 
NERRS,ioos:station:NOAA.NERRS:apaebwq:1,2017-12-04T07:45:00Z,29.7858,-84.8752,2.38,6.7,1111122 
NERRS,ioos:station:NOAA.NERRS:apaebwq:1,2017-12-04T08:45:00Z,29.7858,-84.8752,2.32,7.4,1111122 
NERRS,ioos:station:NOAA.NERRS:apaebwq:1,2017-12-04T09:45:00Z,29.7858,-84.8752,2.24,7.8,1111122 
NERRS,ioos:station:NOAA.NERRS:apaebwq:1,2017-12-04T10:45:00Z,29.7858,-84.8752,2.13,7.8,1111122 
NERRS,ioos:station:NOAA.NERRS:apaebwq:1,2017-12-04T11:45:00Z,29.7858,-84.8752,1.99,7.8,1111122 
NERRS,ioos:station:NOAA.NERRS:apaebwq:1,2017-12-04T12:45:00Z,29.7858,-84.8752,1.87,7.7,1111122 
NERRS,ioos:station:NOAA.NERRS:apaebwq:1,2017-12-04T13:45:00Z,29.7858,-84.8752,1.76,7.6,1111122 
NERRS,ioos:station:NOAA.NERRS:apaebwq:1,2017-12-04T14:45:00Z,29.7858,-84.8752,1.68,7.6,1111122 
NERRS,ioos:station:NOAA.NERRS:apaebwq:1,2017-12-04T15:45:00Z,29.7858,-84.8752,1.62,7.7,1111122 
NERRS,ioos:station:NOAA.NERRS:apaebwq:1,2017-12-04T16:45:00Z,29.7858,-84.8752,1.6,7.1,1111122 
NERRS,ioos:station:NOAA.NERRS:apaebwq:1,2017-12-04T17:45:00Z,29.7858,-84.8752,1.68,7.8,1111122 
NERRS,ioos:station:NOAA.NERRS:apaebwq:1,2017-12-04T18:45:00Z,29.7858,-84.8752,1.85,8.2,1111122 
NERRS,ioos:station:NOAA.NERRS:apaebwq:1,2017-12-04T19:45:00Z,29.7858,-84.8752,2.05,8.3,1111122 
NERRS,ioos:station:NOAA.NERRS:apaebwq:1,2017-12-04T20:45:00Z,29.7858,-84.8752,2.22,7.8,1111122 
NERRS,ioos:station:NOAA.NERRS:apaebwq:1,2017-12-04T21:45:00Z,29.7858,-84.8752,2.3,7.5,1111122 
NERRS,ioos:station:NOAA.NERRS:apaebwq:1,2017-12-04T22:45:00Z,29.7858,-84.8752,2.34,7.0,1111122 
NERRS,ioos:station:NOAA.NERRS:apaebwq:1,2017-12-04T23:45:00Z,29.7858,-84.8752,2.34,7.4,1111122 
NERRS,ioos:station:NOAA.NERRS:apaebwq:1,2017-12-05T00:45:00Z,29.7858,-84.8752,2.3,6.6,1111122 
NERRS,ioos:station:NOAA.NERRS:apaebwq:1,2017-12-05T01:45:00Z,29.7858,-84.8752,2.23,6.2,1111122 
NERRS,ioos:station:NOAA.NERRS:apaebwq:1,2017-12-05T02:45:00Z,29.7858,-84.8752,2.22,6.3,1111122 
NERRS,ioos:station:NOAA.NERRS:apaebwq:1,2017-12-05T03:45:00Z,29.7858,-84.8752,2.25,6.1,1111122 
NERRS,ioos:station:NOAA.NERRS:apaebwq:1,2017-12-05T04:45:00Z,29.7858,-84.8752,2.31,6.0,1111122 
NERRS,ioos:station:NOAA.NERRS:apaebwq:1,2017-12-05T05:45:00Z,29.7858,-84.8752,2.38,6.9,1111122 
NERRS,ioos:station:NOAA.NERRS:apaebwq:1,2017-12-05T06:45:00Z,29.7858,-84.8752,2.46,7.2,1111122 
NERRS,ioos:station:NOAA.NERRS:apaebwq:1,2017-12-05T07:45:00Z,29.7858,-84.8752,2.49,6.9,1111122 
NERRS,ioos:station:NOAA.NERRS:apaebwq:1,2017-12-05T08:45:00Z,29.7858,-84.8752,2.48,6.6,1111122 
NERRS,ioos:station:NOAA.NERRS:apaebwq:1,2017-12-05T09:45:00Z,29.7858,-84.8752,2.4,7.1,1111122 
NERRS,ioos:station:NOAA.NERRS:apaebwq:1,2017-12-05T10:45:00Z,29.7858,-84.8752,2.28,7.5,1111122 
NERRS,ioos:station:NOAA.NERRS:apaebwq:1,2017-12-05T11:45:00Z,29.7858,-84.8752,2.15,7.6,1111122 
NERRS,ioos:station:NOAA.NERRS:apaebwq:1,2017-12-05T12:45:00Z,29.7858,-84.8752,2.01,7.6,1111122 
NERRS,ioos:station:NOAA.NERRS:apaebwq:1,2017-12-05T13:45:00Z,29.7858,-84.8752,1.9,7.3,1111122 
NERRS,ioos:station:NOAA.NERRS:apaebwq:1,2017-12-05T14:45:00Z,29.7858,-84.8752,1.79,7.5,1111122 
NERRS,ioos:station:NOAA.NERRS:apaebwq:1,2017-12-05T15:45:00Z,29.7858,-84.8752,1.71,7.5,1111122 
NERRS,ioos:station:NOAA.NERRS:apaebwq:1,2017-12-05T16:45:00Z,29.7858,-84.8752,1.65,7.6,1111122 
NERRS,ioos:station:NOAA.NERRS:apaebwq:1,2017-12-05T17:45:00Z,29.7858,-84.8752,1.65,7.0,1111122 
NERRS,ioos:station:NOAA.NERRS:apaebwq:1,2017-12-05T18:45:00Z,29.7858,-84.8752,1.77,7.9,1111122 
NERRS,ioos:station:NOAA.NERRS:apaebwq:1,2017-12-05T19:45:00Z,29.7858,-84.8752,1.96,8.1,1111122 
NERRS,ioos:station:NOAA.NERRS:apaebwq:1,2017-12-05T20:45:00Z,29.7858,-84.8752,2.15,7.9,1111122 
NERRS,ioos:station:NOAA.NERRS:apaebwq:1,2017-12-05T21:45:00Z,29.7858,-84.8752,2.27,7.5,1111122 
NERRS,ioos:station:NOAA.NERRS:apaebwq:1,2017-12-05T22:45:00Z,29.7858,-84.8752,2.34,8.0,1111122 
NERRS,ioos:station:NOAA.NERRS:apaebwq:1,2017-12-05T23:45:00Z,29.7858,-84.8752,2.36,6.8,1111122 
NERRS,ioos:station:NOAA.NERRS:apaebwq:1,2017-12-06T00:45:00Z,29.7858,-84.8752,2.35,5.9,1111122 
NERRS,ioos:station:NOAA.NERRS:apaebwq:1,2017-12-06T01:45:00Z,29.7858,-84.8752,2.3,5.8,1111122 
NERRS,ioos:station:NOAA.NERRS:apaebwq:1,2017-12-06T02:45:00Z,29.7858,-84.8752,2.27,7.8,1111122 
NERRS,ioos:station:NOAA.NERRS:apaebwq:1,2017-12-06T03:45:00Z,29.7858,-84.8752,2.27,7.5,1111122 
NERRS,ioos:station:NOAA.NERRS:apaebwq:1,2017-12-06T04:45:00Z,29.7858,-84.8752,2.28,6.9,1111122 
NERRS,ioos:station:NOAA.NERRS:apaebwq:1,2017-12-06T05:45:00Z,29.7858,-84.8752,2.31,6.1,1111122 
NERRS,ioos:station:NOAA.NERRS:apaebwq:1,2017-12-06T06:45:00Z,29.7858,-84.8752,2.39,7.1,1111122 
NERRS,ioos:station:NOAA.NERRS:apaebwq:1,2017-12-06T07:45:00Z,29.7858,-84.8752,2.47,7.3,1111122 
NERRS,ioos:station:NOAA.NERRS:apaebwq:1,2017-12-06T08:45:00Z,29.7858,-84.8752,2.52,6.8,1111122 
NERRS,ioos:station:NOAA.NERRS:apaebwq:1,2017-12-06T09:45:00Z,29.7858,-84.8752,2.47,5.9,1111122 
NERRS,ioos:station:NOAA.NERRS:apaebwq:1,2017-12-06T10:45:00Z,29.7858,-84.8752,2.33,7.2,1111122 
NERRS,ioos:station:NOAA.NERRS:apaebwq:1,2017-12-06T11:45:00Z,29.7858,-84.8752,2.21,7.3,1111122 
NERRS,ioos:station:NOAA.NERRS:apaebwq:1,2017-12-06T12:45:00Z,29.7858,-84.8752,2.06,7.3,1111122 
NERRS,ioos:station:NOAA.NERRS:apaebwq:1,2017-12-06T13:45:00Z,29.7858,-84.8752,1.95,7.3,1111122 
NERRS,ioos:station:NOAA.NERRS:apaebwq:1,2017-12-06T14:45:00Z,29.7858,-84.8752,1.84,7.4,1111122 
NERRS,ioos:station:NOAA.NERRS:apaebwq:1,2017-12-06T15:45:00Z,29.7858,-84.8752,1.73,7.3,1111122 
NERRS,ioos:station:NOAA.NERRS:apaebwq:1,2017-12-06T16:45:00Z,29.7858,-84.8752,1.64,7.4,1111122 
NERRS,ioos:station:NOAA.NERRS:apaebwq:1,2017-12-06T17:45:00Z,29.7858,-84.8752,1.58,7.2,1111122 
NERRS,ioos:station:NOAA.NERRS:apaebwq:1,2017-12-06T18:45:00Z,29.7858,-84.8752,1.61,7.2,1111122 
NERRS,ioos:station:NOAA.NERRS:apaebwq:1,2017-12-06T19:45:00Z,29.7858,-84.8752,1.65,7.4,1111122 
NERRS,ioos:station:NOAA.NERRS:apaebwq:1,2017-12-06T20:45:00Z,29.7858,-84.8752,1.8,7.6,1111122 
NERRS,ioos:station:NOAA.NERRS:apaebwq:1,2017-12-06T21:45:00Z,29.7858,-84.8752,1.9,7.5,1111122 
NERRS,ioos:station:NOAA.NERRS:apaebwq:1,2017-12-06T22:45:00Z,29.7858,-84.8752,2.02,7.4,1111122 
NERRS,ioos:station:NOAA.NERRS:apaebwq:1,2017-12-06T23:45:00Z,29.7858,-84.8752,2.09,7.1,1111122 
NERRS,ioos:station:NOAA.NERRS:apaebwq:1,2017-12-07T00:45:00Z,29.7858,-84.8752,2.14,7.0,1111122 
NERRS,ioos:station:NOAA.NERRS:apaebwq:1,2017-12-07T01:45:00Z,29.7858,-84.8752,2.11,5.7,1111122 
NERRS,ioos:station:NOAA.NERRS:apaebwq:1,2017-12-07T02:45:00Z,29.7858,-84.8752,2.06,6.8,1111122 
NERRS,ioos:station:NOAA.NERRS:apaebwq:1,2017-12-07T03:45:00Z,29.7858,-84.8752,1.98,7.3,1111122 
NERRS,ioos:station:NOAA.NERRS:apaebwq:1,2017-12-07T04:45:00Z,29.7858,-84.8752,1.92,7.1,1111122 
NERRS,ioos:station:NOAA.NERRS:apaebwq:1,2017-12-07T05:45:00Z,29.7858,-84.8752,1.96,7.0,1111122 
NERRS,ioos:station:NOAA.NERRS:apaebwq:1,2017-12-07T06:45:00Z,29.7858,-84.8752,2.03,7.3,1111122 
NERRS,ioos:station:NOAA.NERRS:apaebwq:1,2017-12-07T07:45:00Z,29.7858,-84.8752,2.1,7.2,1111122 
NERRS,ioos:station:NOAA.NERRS:apaebwq:1,2017-12-07T08:45:00Z,29.7858,-84.8752,2.13,7.1,1111122 
NERRS,ioos:station:NOAA.NERRS:apaebwq:1,2017-12-07T09:45:00Z,29.7858,-84.8752,2.16,7.0,1111122 
NERRS,ioos:station:NOAA.NERRS:apaebwq:1,2017-12-07T11:45:00Z,29.7858,-84.8752,2.09,7.4,1111122 
NERRS,ioos:station:NOAA.NERRS:apaebwq:1,2017-12-07T12:45:00Z,29.7858,-84.8752,1.97,7.4,1111122 
NERRS,ioos:station:NOAA.NERRS:apaebwq:1,2017-12-07T13:45:00Z,29.7858,-84.8752,1.86,7.4,1111122 
NERRS,ioos:station:NOAA.NERRS:apaebwq:1,2017-12-07T14:45:00Z,29.7858,-84.8752,1.73,7.5,1111122 
NERRS,ioos:station:NOAA.NERRS:apaebwq:1,2017-12-07T15:45:00Z,29.7858,-84.8752,1.64,7.6,1111122 
NERRS,ioos:station:NOAA.NERRS:apaebwq:1,2017-12-07T16:45:00Z,29.7858,-84.8752,1.53,7.6,1111122 
NERRS,ioos:station:NOAA.NERRS:apaebwq:1,2017-12-07T17:45:00Z,29.7858,-84.8752,1.44,8.0,1111122 
NERRS,ioos:station:NOAA.NERRS:apaebwq:1,2017-12-07T18:45:00Z,29.7858,-84.8752,1.39,7.9,1111122 
NERRS,ioos:station:NOAA.NERRS:apaebwq:1,2017-12-07T19:45:00Z,29.7858,-84.8752,1.42,8.2,1111122 
NERRS,ioos:station:NOAA.NERRS:apaebwq:1,2017-12-07T21:45:00Z,29.7858,-84.8752,1.68,8.1,1111122 
NERRS,ioos:station:NOAA.NERRS:apaebwq:1,2017-12-07T22:45:00Z,29.7858,-84.8752,1.85,8.0,1111122 
NERRS,ioos:station:NOAA.NERRS:apaebwq:1,2017-12-07T23:45:00Z,29.7858,-84.8752,1.99,8.0,1111122 
NERRS,ioos:station:NOAA.NERRS:apaebwq:1,2017-12-08T00:45:00Z,29.7858,-84.8752,2.04,7.8,1111122 
NERRS,ioos:station:NOAA.NERRS:apaebwq:1,2017-12-08T01:45:00Z,29.7858,-84.8752,2.04,7.7,1111122 
NERRS,ioos:station:NOAA.NERRS:apaebwq:1,2017-12-08T02:45:00Z,29.7858,-84.8752,1.98,7.1,1111122 
NERRS,ioos:station:NOAA.NERRS:apaebwq:1,2017-12-08T03:45:00Z,29.7858,-84.8752,1.93,6.8,1111122 
NERRS,ioos:station:NOAA.NERRS:apaebwq:1,2017-12-08T04:45:00Z,29.7858,-84.8752,1.88,7.9,1111122 
NERRS,ioos:station:NOAA.NERRS:apaebwq:1,2017-12-08T05:45:00Z,29.7858,-84.8752,1.92,7.7,1111122 
NERRS,ioos:station:NOAA.NERRS:apaebwq:1,2017-12-08T06:45:00Z,29.7858,-84.8752,2.01,8.1,1111122 
NERRS,ioos:station:NOAA.NERRS:apaebwq:1,2017-12-08T07:45:00Z,29.7858,-84.8752,2.12,8.1,1111122 
NERRS,ioos:station:NOAA.NERRS:apaebwq:1,2017-12-08T08:45:00Z,29.7858,-84.8752,2.18,8.2,1111122 
NERRS,ioos:station:NOAA.NERRS:apaebwq:1,2017-12-08T09:45:00Z,29.7858,-84.8752,2.18,7.8,1111122 
NERRS,ioos:station:NOAA.NERRS:apaebwq:1,2017-12-08T10:45:00Z,29.7858,-84.8752,2.17,7.8,1111122 
NERRS,ioos:station:NOAA.NERRS:apaebwq:1,2017-12-08T11:45:00Z,29.7858,-84.8752,2.14,7.8,1111122 
NERRS,ioos:station:NOAA.NERRS:apaebwq:1,2017-12-08T12:45:00Z,29.7858,-84.8752,2.09,7.7,1111122 
NERRS,ioos:station:NOAA.NERRS:apaebwq:1,2017-12-08T13:45:00Z,29.7858,-84.8752,1.99,8.1,1111122 
NERRS,ioos:station:NOAA.NERRS:apaebwq:1,2017-12-08T14:45:00Z,29.7858,-84.8752,1.91,8.1,1111122 
NERRS,ioos:station:NOAA.NERRS:apaebwq:1,2017-12-08T15:45:00Z,29.7858,-84.8752,1.83,8.1,1111122 
NERRS,ioos:station:NOAA.NERRS:apaebwq:1,2017-12-08T16:45:00Z,29.7858,-84.8752,1.75,8.3,1111122 
NERRS,ioos:station:NOAA.NERRS:apaebwq:1,2017-12-08T17:45:00Z,29.7858,-84.8752,1.65,8.4,1111122 
NERRS,ioos:station:NOAA.NERRS:apaebwq:1,2017-12-08T18:45:00Z,29.7858,-84.8752,1.52,8.6,1111122 
NERRS,ioos:station:NOAA.NERRS:apaebwq:1,2017-12-08T19:45:00Z,29.7858,-84.8752,1.44,8.8,1111122 
NERRS,ioos:station:NOAA.NERRS:apaebwq:1,2017-12-08T20:45:00Z,29.7858,-84.8752,1.47,8.9,1111122 
NERRS,ioos:station:NOAA.NERRS:apaebwq:1,2017-12-08T21:45:00Z,29.7858,-84.8752,1.62,8.9,1111122 
NERRS,ioos:station:NOAA.NERRS:apaebwq:1,2017-12-08T22:45:00Z,29.7858,-84.8752,1.81,8.7,1111122 
NERRS,ioos:station:NOAA.NERRS:apaebwq:1,2017-12-08T23:45:00Z,29.7858,-84.8752,2.01,8.6,1111122 
NERRS,ioos:station:NOAA.NERRS:apaebwq:1,2017-12-09T00:45:00Z,29.7858,-84.8752,2.07,8.1,1111122 
NERRS,ioos:station:NOAA.NERRS:apaebwq:1,2017-12-09T01:45:00Z,29.7858,-84.8752,2.1,8.1,1111122 
NERRS,ioos:station:NOAA.NERRS:apaebwq:1,2017-12-09T02:45:00Z,29.7858,-84.8752,2.12,8.2,1111122 
NERRS,ioos:station:NOAA.NERRS:apaebwq:1,2017-12-09T03:45:00Z,29.7858,-84.8752,2.1,7.8,1111122 
NERRS,ioos:station:NOAA.NERRS:apaebwq:1,2017-12-09T04:45:00Z,29.7858,-84.8752,2.1,8.4,1111122 
NERRS,ioos:station:NOAA.NERRS:apaebwq:1,2017-12-09T05:45:00Z,29.7858,-84.8752,2.05,8.2,1111122 
NERRS,ioos:station:NOAA.NERRS:apaebwq:1,2017-12-09T06:45:00Z,29.7858,-84.8752,2.0,8.0,1111122 
NERRS,ioos:station:NOAA.NERRS:apaebwq:1,2017-12-09T07:45:00Z,29.7858,-84.8752,1.98,8.4,1111122 
NERRS,ioos:station:NOAA.NERRS:apaebwq:1,2017-12-09T08:45:00Z,29.7858,-84.8752,2.07,8.3,1111122 
NERRS,ioos:station:NOAA.NERRS:apaebwq:1,2017-12-09T09:45:00Z,29.7858,-84.8752,2.15,8.4,1111122 
NERRS,ioos:station:NOAA.NERRS:apaebwq:1,2017-12-09T10:45:00Z,29.7858,-84.8752,2.2,8.2,1111122 
NERRS,ioos:station:NOAA.NERRS:apaebwq:1,2017-12-09T11:45:00Z,29.7858,-84.8752,2.15,8.4,1111122 
NERRS,ioos:station:NOAA.NERRS:apaebwq:1,2017-12-09T12:45:00Z,29.7858,-84.8752,2.05,8.5,1111122 
NERRS,ioos:station:NOAA.NERRS:apaebwq:1,2017-12-09T13:45:00Z,29.7858,-84.8752,2.02,8.4,1111122 
NERRS,ioos:station:NOAA.NERRS:apaebwq:1,2017-12-09T14:45:00Z,29.7858,-84.8752,1.93,8.8,1111122 
NERRS,ioos:station:NOAA.NERRS:apaebwq:1,2017-12-09T15:45:00Z,29.7858,-84.8752,1.86,8.9,1111122 
NERRS,ioos:station:NOAA.NERRS:apaebwq:1,2017-12-09T16:45:00Z,29.7858,-84.8752,1.75,9.2,1111122 
NERRS,ioos:station:NOAA.NERRS:apaebwq:1,2017-12-09T17:45:00Z,29.7858,-84.8752,1.68,9.5,1111122 
NERRS,ioos:station:NOAA.NERRS:apaebwq:1,2017-12-09T18:45:00Z,29.7858,-84.8752,1.59,9.9,1111122 
NERRS,ioos:station:NOAA.NERRS:apaebwq:1,2017-12-09T19:45:00Z,29.7858,-84.8752,1.5,10.2,1111122 
NERRS,ioos:station:NOAA.NERRS:apaebwq:1,2017-12-09T20:45:00Z,29.7858,-84.8752,1.47,10.3,1111122 
NERRS,ioos:station:NOAA.NERRS:apaebwq:1,2017-12-09T21:45:00Z,29.7858,-84.8752,1.52,10.4,1111122 
NERRS,ioos:station:NOAA.NERRS:apaebwq:1,2017-12-09T22:45:00Z,29.7858,-84.8752,1.62,10.2,1111122 
NERRS,ioos:station:NOAA.NERRS:apaebwq:1,2017-12-09T23:45:00Z,29.7858,-84.8752,1.73,10.1,1111122 
NERRS,ioos:station:NOAA.NERRS:apaebwq:1,2017-12-10T00:45:00Z,29.7858,-84.8752,1.79,9.8,1111122 
NERRS,ioos:station:NOAA.NERRS:apaebwq:1,2017-12-10T01:45:00Z,29.7858,-84.8752,1.79,9.4,1111122 
NERRS,ioos:station:NOAA.NERRS:apaebwq:1,2017-12-10T02:45:00Z,29.7858,-84.8752,1.79,9.1,1111122 
NERRS,ioos:station:NOAA.NERRS:apaebwq:1,2017-12-10T03:45:00Z,29.7858,-84.8752,1.78,9.4,1111122 
NERRS,ioos:station:NOAA.NERRS:apaebwq:1,2017-12-10T04:45:00Z,29.7858,-84.8752,1.73,10.0,1111122 
NERRS,ioos:station:NOAA.NERRS:apaebwq:1,2017-12-10T05:45:00Z,29.7858,-84.8752,1.69,10.1,1111122 
NERRS,ioos:station:NOAA.NERRS:apaebwq:1,2017-12-10T06:45:00Z,29.7858,-84.8752,1.64,9.8,1111122 
NERRS,ioos:station:NOAA.NERRS:apaebwq:1,2017-12-10T07:45:00Z,29.7858,-84.8752,1.59,9.9,1111122 
NERRS,ioos:station:NOAA.NERRS:apaebwq:1,2017-12-10T08:45:00Z,29.7858,-84.8752,1.58,9.7,1111122 
NERRS,ioos:station:NOAA.NERRS:apaebwq:1,2017-12-10T09:45:00Z,29.7858,-84.8752,1.59,9.6,1111122 
NERRS,ioos:station:NOAA.NERRS:apaebwq:1,2017-12-10T10:45:00Z,29.7858,-84.8752,1.61,9.4,1111122 
NERRS,ioos:station:NOAA.NERRS:apaebwq:1,2017-12-10T11:45:00Z,29.7858,-84.8752,1.63,9.4,1111122 
NERRS,ioos:station:NOAA.NERRS:apaebwq:1,2017-12-10T12:45:00Z,29.7858,-84.8752,1.67,9.4,1111122 
NERRS,ioos:station:NOAA.NERRS:apaebwq:1,2017-12-10T13:45:00Z,29.7858,-84.8752,1.72,9.6,1111122 
NERRS,ioos:station:NOAA.NERRS:apaebwq:1,2017-12-10T14:45:00Z,29.7858,-84.8752,1.75,9.8,1111122 
NERRS,ioos:station:NOAA.NERRS:apaebwq:1,2017-12-10T15:45:00Z,29.7858,-84.8752,1.73,9.8,1111122 
NERRS,ioos:station:NOAA.NERRS:apaebwq:1,2017-12-10T16:45:00Z,29.7858,-84.8752,1.69,10.2,1111122 
NERRS,ioos:station:NOAA.NERRS:apaebwq:1,2017-12-10T17:45:00Z,29.7858,-84.8752,1.66,10.4,1111122 
NERRS,ioos:station:NOAA.NERRS:apaebwq:1,2017-12-10T18:45:00Z,29.7858,-84.8752,1.65,10.4,1111122 
NERRS,ioos:station:NOAA.NERRS:apaebwq:1,2017-12-10T19:45:00Z,29.7858,-84.8752,1.65,10.2,1111122 
NERRS,ioos:station:NOAA.NERRS:apaebwq:1,2017-12-10T20:45:00Z,29.7858,-84.8752,1.67,10.4,1111122 
NERRS,ioos:station:NOAA.NERRS:apaebwq:1,2017-12-10T21:45:00Z,29.7858,-84.8752,1.71,10.4,1111122 
NERRS,ioos:station:NOAA.NERRS:apaebwq:1,2017-12-10T22:45:00Z,29.7858,-84.8752,1.75,10.5,1111122 
NERRS,ioos:station:NOAA.NERRS:apaebwq:1,2017-12-10T23:45:00Z,29.7858,-84.8752,1.8,10.2,1111122 
NERRS,ioos:station:NOAA.NERRS:apaebwq:1,2017-12-11T00:45:00Z,29.7858,-84.8752,1.88,10.1,1111122 
NERRS,ioos:station:NOAA.NERRS:apaebwq:1,2017-12-11T01:45:00Z,29.7858,-84.8752,1.94,10.0,1111122 
NERRS,ioos:station:NOAA.NERRS:apaebwq:1,2017-12-11T02:45:00Z,29.7858,-84.8752,1.99,9.9,1111122 
NERRS,ioos:station:NOAA.NERRS:apaebwq:1,2017-12-11T03:45:00Z,29.7858,-84.8752,2.03,9.5,1111122 
NERRS,ioos:station:NOAA.NERRS:apaebwq:1,2017-12-11T04:45:00Z,29.7858,-84.8752,2.01,9.7,1111122 
NERRS,ioos:station:NOAA.NERRS:apaebwq:1,2017-12-11T05:45:00Z,29.7858,-84.8752,1.95,10.1,1111122 
NERRS,ioos:station:NOAA.NERRS:apaebwq:1,2017-12-11T06:45:00Z,29.7858,-84.8752,1.88,10.0,1111122 
NERRS,ioos:station:NOAA.NERRS:apaebwq:1,2017-12-11T07:45:00Z,29.7858,-84.8752,1.81,10.0,1111122 
NERRS,ioos:station:NOAA.NERRS:apaebwq:1,2017-12-11T08:45:00Z,29.7858,-84.8752,1.77,9.9,1111122 
NERRS,ioos:station:NOAA.NERRS:apaebwq:1,2017-12-11T09:45:00Z,29.7858,-84.8752,1.74,9.7,1111122 
NERRS,ioos:station:NOAA.NERRS:apaebwq:1,2017-12-11T10:45:00Z,29.7858,-84.8752,1.72,9.5,1111122 
NERRS,ioos:station:NOAA.NERRS:apaebwq:1,2017-12-11T11:45:00Z,29.7858,-84.8752,1.75,9.2,1111122 